GW6177 Weather Reports


Display with metric or nautical units.
time (UTC)temp
F
wind
direction
speed
MPH
gust
MPH
rain 1hr
in
rain 24hr
in
rain mn
in
humidity
%
barometer
mb
20260905234339 91 309 1.0 2.0 0.00 0.00 0.00 60 1011.5
20260905233834 91 297 0.0 1.0 0.00 0.00 0.00 59 1011.5
20260905233329 91 343 1.0 2.0 0.00 0.00 0.00 59 1011.5
20260905232828 92 320 1.0 2.0 0.00 0.00 0.00 59 1011.7
20260905232325 92 333 0.0 2.0 0.00 0.00 0.00 58 1011.7
20260905231820 92 317 1.0 2.0 0.00 0.00 0.00 58 1011.5
20260905231315 93 322 0.0 2.0 0.00 0.00 0.00 56 1011.5
20260905230812 94 316 0.0 2.0 0.00 0.00 0.00 55 1011.5
20260905230309 94 305 2.0 2.0 0.00 0.00 0.00 54 1011.6
20260905225809 96 283 1.0 2.0 0.00 0.00 0.00 51 1011.6
20260905225306 98 308 2.0 2.0 0.00 0.00 0.00 49 1011.5
20260905224804 100 315 1.0 2.0 0.00 0.00 0.00 47 1011.6
20260905224259 100 308 1.0 2.0 0.00 0.00 0.00 46 1011.3
20260905223754 99 313 1.0 1.0 0.00 0.00 0.00 48 1011.3
20260905223252 98 326 1.0 2.0 0.00 0.00 0.00 49 1011.3
20260905222747 98 316 1.0 2.0 0.00 0.00 0.00 47 1011.2
20260905222246 98 316 2.0 2.0 0.00 0.00 0.00 48 1011.6
20260905221742 99 301 1.0 2.0 0.00 0.00 0.00 45 1011.2
20260905221239 98 316 2.0 2.0 0.00 0.00 0.00 45 1011.2
20260905220734 98 332 1.0 2.0 0.00 0.00 0.00 48 1011.0
20260905220230 97 327 0.0 3.0 0.00 0.00 0.00 50 1011.0
20260905215729 97 311 0.0 2.0 0.00 0.00 0.00 49 1011.3
20260905215226 98 301 1.0 2.0 0.00 0.00 0.00 47 1011.2
20260905214721 98 302 1.0 2.0 0.00 0.00 0.00 47 1011.3
20260905214216 98 304 1.0 2.0 0.00 0.00 0.00 47 1011.3
20260905213712 98 255 1.0 2.0 0.00 0.00 0.00 46 1011.3
20260905213208 97 319 1.0 2.0 0.00 0.00 0.00 48 1011.3
20260905212703 96 286 0.0 2.0 0.00 0.00 0.00 50 1011.5
20260905212202 94 309 0.0 1.0 0.00 0.00 0.00 54 1011.5
20260905211656 94 315 0.0 2.0 0.00 0.00 0.00 59 1011.6
20260905211152 95 327 0.0 2.0 0.00 0.00 0.00 57 1011.3
20260905210648 96 300 0.0 1.0 0.00 0.00 0.00 55 1011.3
20260905210143 96 328 1.0 1.0 0.00 0.00 0.00 54 1011.7
20260905205642 97 312 1.0 1.0 0.00 0.00 0.00 52 1011.6
20260905205141 96 324 1.0 2.0 0.00 0.00 0.00 49 1011.7
20260905204640 95 309 2.0 3.0 0.00 0.00 0.00 48 1011.6
20260905204136 95 321 0.0 2.0 0.00 0.00 0.00 50 1011.6
20260905203637 96 316 1.0 2.0 0.00 0.00 0.00 49 1011.5
20260905203132 97 309 1.0 2.0 0.00 0.00 0.00 48 1011.6
20260905202627 97 311 1.0 2.0 0.00 0.00 0.00 47 1011.6
20260905202123 98 333 1.0 2.0 0.00 0.00 0.00 46 1011.6
20260905201619 99 320 2.0 4.0 0.00 0.00 0.00 46 1011.6
20260905201118 100 325 2.0 4.0 0.00 0.00 0.00 44 1011.9
20260905200614 100 311 1.0 2.0 0.00 0.00 0.00 45 1011.7
20260905200109 99 277 1.0 3.0 0.00 0.00 0.00 47 1012.0
20260905195607 99 297 0.0 2.0 0.00 0.00 0.00 45 1011.8
20260905195103 100 330 2.0 2.0 0.00 0.00 0.00 44 1011.8
20260905194602 101 335 2.0 3.0 0.00 0.00 0.00 43 1011.9
20260905194102 100 312 2.0 5.0 0.00 0.00 0.00 43 1011.6
20260905193557 100 353 2.0 2.0 0.00 0.00 0.00 47 1012.1
20260905193052 101 296 2.0 4.0 0.00 0.00 0.00 44 1012.0
20260905192547 102 315 2.0 4.0 0.00 0.00 0.00 42 1012.0
20260905192044 102 272 2.0 3.0 0.00 0.00 0.00 39 1012.1
20260905191542 101 284 0.0 2.0 0.00 0.00 0.00 42 1012.0
20260905191042 102 315 0.0 2.0 0.00 0.00 0.00 41 1012.0
20260905190540 101 268 2.0 3.0 0.00 0.00 0.00 41 1012.2
20260905190039 101 290 2.0 4.0 0.00 0.00 0.00 43 1012.3
20260905185539 101 311 2.0 3.0 0.00 0.00 0.00 46 1012.1
20260905185038 102 300 1.0 3.0 0.00 0.00 0.00 40 1012.4
20260905184539 101 332 1.0 2.0 0.00 0.00 0.00 43 1012.5
20260905184038 100 307 2.0 2.0 0.00 0.00 0.00 46 1012.7
20260905183537 100 287 2.0 4.0 0.00 0.00 0.00 45 1012.8
20260905183033 99 317 2.0 3.0 0.00 0.00 0.00 48 1012.7
20260905182533 99 278 1.0 2.0 0.00 0.00 0.00 44 1012.6
20260905182032 100 309 2.0 3.0 0.00 0.00 0.00 44 1012.8
20260905181527 100 324 2.0 2.0 0.00 0.00 0.00 44 1012.7
20260905181026 99 305 2.0 2.0 0.00 0.00 0.00 43 1013.0
20260905180521 99 255 2.0 3.0 0.00 0.00 0.00 43 1012.7
20260905180017 100 349 2.0 4.0 0.00 0.00 0.00 44 1012.9
20260905175516 101 279 2.0 3.0 0.00 0.00 0.00 45 1012.9
20260905175012 101 320 4.0 4.0 0.00 0.00 0.00 43 1013.0
20260905174507 100 315 2.0 2.0 0.00 0.00 0.00 45 1013.0
20260905174003 100 318 2.0 3.0 0.00 0.00 0.00 44 1012.9
20260905173459 101 2 0.0 2.0 0.00 0.00 0.00 44 1013.0
20260905172954 101 294 2.0 3.0 0.00 0.00 0.00 43 1012.9
20260905172452 101 310 2.0 3.0 0.00 0.00 0.00 42 1012.9
20260905171948 101 310 2.0 3.0 0.00 0.00 0.00 46 1013.3
20260905171444 100 303 2.0 2.0 0.00 0.00 0.00 48 1013.2
20260905170940 101 330 2.0 2.0 0.00 0.00 0.00 44 1013.1
20260905170436 101 324 2.0 2.0 0.00 0.00 0.00 44 1013.2
20260905165936 101 292 2.0 3.0 0.00 0.00 0.00 50 1013.2
20260905165431 100 324 2.0 2.0 0.00 0.00 0.00 50 1013.4
20260905164926 98 310 2.0 3.0 0.00 0.00 0.00 48 1013.4
20260905164426 98 306 2.0 5.0 0.00 0.00 0.00 48 1013.3
20260905163921 100 278 2.0 2.0 0.00 0.00 0.00 46 1013.5
20260905163417 99 309 2.0 2.0 0.00 0.00 0.00 47 1013.4
20260905162913 100 305 1.0 2.0 0.00 0.00 0.00 46 1013.5
20260905162408 99 312 2.0 3.0 0.00 0.00 0.00 47 1013.4
20260905161903 98 319 2.0 2.0 0.00 0.00 0.00 50 1013.3
20260905161401 97 336 0.0 2.0 0.00 0.00 0.00 50 1013.5
20260905160900 96 309 1.0 4.0 0.00 0.00 0.00 53 1013.5
20260905160354 96 280 2.0 3.0 0.00 0.00 0.00 54 1013.5
20260905155849 96 268 2.0 3.0 0.00 0.00 0.00 51 1013.6
20260905155348 98 291 1.0 2.0 0.00 0.00 0.00 52 1013.5
20260905154848 96 289 1.0 2.0 0.00 0.00 0.00 53 1013.6
20260905154343 96 271 2.0 3.0 0.00 0.00 0.00 51 1013.7
20260905153838 96 320 1.0 2.0 0.00 0.00 0.00 51 1013.7
20260905153335 97 327 2.0 3.0 0.00 0.00 0.00 50 1013.8
20260905152835 97 285 1.0 2.0 0.00 0.00 0.00 54 1013.4
20260905152334 96 301 1.0 2.0 0.00 0.00 0.00 54 1013.6
20260905151829 97 92 1.0 2.0 0.00 0.00 0.00 51 1013.7
20260905151325 95 313 2.0 2.0 0.00 0.00 0.00 56 1013.8
20260905150824 94 292 2.0 2.0 0.00 0.00 0.00 56 1013.9
20260905150319 93 322 0.0 2.0 0.00 0.00 0.00 57 1013.6
20260905145817 93 311 2.0 2.0 0.00 0.00 0.00 56 1013.6
20260905145316 94 312 1.0 3.0 0.00 0.00 0.00 55 1013.7
20260905144815 94 308 1.0 2.0 0.00 0.00 0.00 57 1013.6
20260905144311 93 326 2.0 2.0 0.00 0.00 0.00 56 1013.7
20260905143810 93 323 2.0 2.0 0.00 0.00 0.00 58 1013.6
20260905143304 92 309 0.0 2.0 0.00 0.00 0.00 59 1013.6
20260905142803 92 311 2.0 3.0 0.00 0.00 0.00 60 1013.4
20260905142257 92 289 1.0 2.0 0.00 0.00 0.00 59 1013.5
20260905141754 91 287 1.0 2.0 0.00 0.00 0.00 60 1013.7
20260905141249 90 333 1.0 2.0 0.00 0.00 0.00 60 1013.6
20260905140744 90 331 1.0 2.0 0.00 0.00 0.00 61 1013.5
20260905140244 90 328 1.0 2.0 0.00 0.00 0.00 61 1013.6
20260905135743 89 337 1.0 2.0 0.00 0.00 0.00 63 1013.7
20260905135240 89 321 1.0 2.0 0.00 0.00 0.00 66 1013.6
20260905134739 87 15 0.0 2.0 0.00 0.00 0.00 67 1013.8
20260905134239 86 319 0.0 2.0 0.00 0.00 0.00 69 1013.5
20260905133733 85 337 1.0 1.0 0.00 0.00 0.00 76 1013.7
20260905133229 82 343 1.0 1.0 0.00 0.00 0.00 78 1013.8
20260905132727 81 6 0.0 0.0 0.00 0.00 0.00 85 1013.8
20260905132223 80 25 0.0 0.0 0.00 0.00 0.00 86 1013.7
20260905131718 80 338 1.0 1.0 0.00 0.00 0.00 87 1013.7
20260905131213 79 354 0.0 1.0 0.00 0.00 0.00 88 1013.8
20260905130708 79 25 0.0 1.0 0.00 0.00 0.00 89 1013.7
20260905130207 78 25 0.0 0.0 0.00 0.00 0.00 90 1013.8
20260905125702 77 336 0.0 1.0 0.00 0.00 0.00 89 1013.8
20260905125158 77 336 0.0 1.0 0.00 0.00 0.00 89 1013.5
20260905124654 77 32 0.0 1.0 0.00 0.00 0.00 89 1013.7
20260905124149 77 37 0.0 2.0 0.00 0.00 0.00 91 1013.4
20260905123644 76 322 1.0 2.0 0.00 0.00 0.00 91 1013.6
20260905123142 75 19 2.0 2.0 0.00 0.00 0.00 92 1013.2
20260905122641 75 119 0.0 1.0 0.00 0.00 0.00 92 1013.3
20260905122136 75 36 1.0 1.0 0.00 0.00 0.00 92 1013.5
20260905121631 75 6 0.0 0.0 0.00 0.00 0.00 92 1013.4
20260905121126 75 45 0.0 1.0 0.00 0.00 0.00 92 1013.4
20260905120625 74 28 0.0 1.0 0.00 0.00 0.00 92 1013.1
20260905120120 74 23 1.0 1.0 0.00 0.00 0.00 92 1013.4
20260905115619 74 347 0.0 2.0 0.00 0.00 0.00 92 1013.2
20260905115114 74 24 1.0 1.0 0.00 0.00 0.00 92 1013.0
20260905114614 74 24 1.0 1.0 0.00 0.00 0.00 92 1013.0
20260905114113 74 30 0.0 1.0 0.00 0.00 0.00 92 1013.1
20260905113608 73 345 0.0 0.0 0.00 0.00 0.00 91 1012.8
20260905113103 74 38 0.0 0.0 0.00 0.00 0.00 90 1012.9
20260905112558 74 296 0.0 0.0 0.00 0.00 0.00 90 1013.1
20260905112054 74 333 0.0 2.0 0.00 0.00 0.00 90 1012.9
20260905111549 74 340 0.0 2.0 0.00 0.00 0.00 90 1012.7
20260905111048 74 7 0.0 2.0 0.00 0.00 0.00 90 1012.5
20260905110547 74 5 1.0 1.0 0.00 0.00 0.00 90 1012.7
20260905110042 75 11 0.0 0.0 0.00 0.00 0.00 89 1012.7
20260905105542 75 13 0.0 0.0 0.00 0.00 0.00 89 1012.8
20260905105041 75 6 0.0 0.0 0.00 0.00 0.00 88 1012.7
20260905104538 75 19 0.0 1.0 0.00 0.00 0.00 88 1012.8
20260905104037 75 32 0.0 0.0 0.00 0.00 0.00 87 1012.6
20260905103532 75 343 0.0 1.0 0.00 0.00 0.00 87 1012.9
20260905103029 76 25 0.0 1.0 0.00 0.00 0.00 86 1013.1
20260905102524 76 37 0.0 0.0 0.00 0.00 0.00 86 1012.9
20260905102020 76 309 0.0 1.0 0.00 0.00 0.00 85 1012.6
20260905101519 76 322 0.0 1.0 0.00 0.00 0.00 86 1012.8
20260905101017 76 346 0.0 1.0 0.00 0.00 0.00 86 1012.8
20260905100514 76 329 0.0 1.0 0.00 0.00 0.00 85 1012.9
20260905100013 76 15 0.0 1.0 0.00 0.00 0.00 85 1012.9
20260905095508 76 24 0.0 1.0 0.00 0.00 0.00 85 1012.9
20260905095003 76 25 0.0 1.0 0.00 0.00 0.00 85 1012.8
20260905094458 76 37 0.0 1.0 0.00 0.00 0.00 85 1012.7
20260905093957 76 25 0.0 1.0 0.00 0.00 0.00 85 1012.7
20260905093452 76 23 0.0 1.0 0.00 0.00 0.00 84 1012.8
20260905092948 77 28 0.0 1.0 0.00 0.00 0.00 84 1012.8
20260905092443 77 0 0.0 1.0 0.00 0.00 0.00 84 1012.7
20260905091939 77 343 0.0 1.0 0.00 0.00 0.00 84 1012.8
20260905091438 77 321 1.0 1.0 0.00 0.00 0.00 83 1012.9
20260905090938 77 298 0.0 1.0 0.00 0.00 0.00 84 1012.8
20260905090433 77 297 0.0 1.0 0.00 0.00 0.00 82 1013.0
20260905085933 78 321 0.0 1.0 0.00 0.00 0.00 82 1012.9
20260905085432 78 331 0.0 2.0 0.00 0.00 0.00 81 1012.9
20260905084928 78 316 1.0 2.0 0.00 0.00 0.00 81 1012.9
20260905084427 78 322 1.0 2.0 0.00 0.00 0.00 81 1013.0
20260905083922 78 304 0.0 2.0 0.00 0.00 0.00 80 1013.0
20260905083418 78 314 1.0 1.0 0.00 0.00 0.00 79 1013.1
20260905082913 79 343 0.0 1.0 0.00 0.00 0.00 79 1012.8
20260905082409 79 325 1.0 2.0 0.00 0.00 0.00 79 1013.0
20260905081904 79 322 1.0 1.0 0.00 0.00 0.00 79 1013.0
20260905081359 80 326 0.0 2.0 0.00 0.00 0.00 78 1013.1
20260905080857 80 337 1.0 2.0 0.00 0.00 0.00 76 1013.1
20260905080352 80 350 1.0 2.0 0.00 0.00 0.00 77 1013.1
20260905075852 80 326 0.0 2.0 0.00 0.00 0.00 75 1013.3
20260905075351 80 350 0.0 1.0 0.00 0.00 0.00 77 1013.1
20260905074850 80 279 1.0 2.0 0.00 0.00 0.00 75 1013.1
20260905074346 80 307 2.0 2.0 0.00 0.00 0.00 76 1013.0
20260905073841 79 320 1.0 2.0 0.00 0.00 0.00 77 1013.0
20260905073337 78 6 0.0 1.0 0.00 0.00 0.00 80 1013.1
20260905072831 78 343 0.0 0.0 0.00 0.00 0.00 80 1013.1
20260905072326 78 343 0.0 0.0 0.00 0.00 0.00 80 1013.0
20260905071823 78 346 0.0 1.0 0.00 0.00 0.00 79 1013.1
20260905071319 78 343 0.0 0.0 0.00 0.00 0.00 79 1012.9
20260905070813 79 339 0.0 0.0 0.00 0.00 0.00 79 1013.0
20260905070310 79 336 0.0 0.0 0.00 0.00 0.00 78 1013.1
20260905065809 79 322 0.0 1.0 0.00 0.00 0.00 78 1013.0
20260905065308 79 333 0.0 1.0 0.00 0.00 0.00 78 1013.0
20260905064803 79 319 0.0 1.0 0.00 0.00 0.00 77 1013.0
20260905064258 80 336 0.0 1.0 0.00 0.00 0.00 75 1013.0
20260905063757 80 15 0.0 1.0 0.00 0.00 0.00 73 1013.0
20260905063253 80 343 0.0 1.0 0.00 0.00 0.00 73 1013.0
20260905062749 80 322 0.0 1.0 0.00 0.00 0.00 74 1012.9
20260905062249 80 22 0.0 1.0 0.00 0.00 0.00 73 1013.0
20260905061743 80 352 0.0 1.0 0.00 0.00 0.00 73 1013.1
20260905061238 81 32 0.0 1.0 0.00 0.00 0.00 73 1013.1
20260905060732 80 322 0.0 1.0 0.00 0.00 0.00 75 1013.2
20260905060229 80 47 2.0 2.0 0.00 0.00 0.00 74 1013.1
20260905055727 79 50 0.0 2.0 0.00 0.00 0.00 76 1013.2
20260905055223 79 32 0.0 1.0 0.00 0.00 0.00 76 1013.1
20260905054718 79 356 0.0 1.0 0.00 0.00 0.00 78 1013.2
20260905054214 80 2 0.0 0.0 0.00 0.00 0.00 79 1013.3
20260905053714 80 339 0.0 1.0 0.00 0.00 0.00 78 1013.2
20260905053209 80 326 0.0 1.0 0.00 0.00 0.00 77 1013.3
20260905052708 80 343 0.0 1.0 0.00 0.00 0.00 76 1013.2
20260905052203 80 25 0.0 0.0 0.00 0.00 0.00 74 1013.5
20260905051703 80 321 0.0 2.0 0.00 0.00 0.00 73 1013.5
20260905051200 79 8 1.0 2.0 0.00 0.00 0.00 76 1013.4
20260905050656 79 329 0.0 1.0 0.00 0.00 0.00 77 1013.4
20260905050153 79 352 0.0 0.0 0.00 0.00 0.00 78 1013.4
20260905045652 79 0 0.0 1.0 0.00 0.00 0.00 78 1013.3
20260905045148 79 353 0.0 0.0 0.00 0.00 0.00 79 1013.3
20260905044648 79 344 1.0 1.0 0.00 0.00 0.00 82 1013.2
20260905044143 79 11 0.0 0.0 0.00 0.00 0.00 81 1013.1
20260905043642 79 37 0.0 0.0 0.00 0.00 0.00 79 1013.3
20260905043137 79 0 0.0 0.0 0.00 0.00 0.00 78 1013.4
20260905042636 80 15 0.0 0.0 0.00 0.00 0.00 77 1013.4
20260905042131 80 347 0.0 0.0 0.00 0.00 0.00 76 1013.3
20260905041627 80 343 0.0 0.0 0.00 0.00 0.00 75 1013.2
20260905041122 80 333 0.0 0.0 0.00 0.00 0.00 77 1013.3
20260905040622 80 0 0.0 1.0 0.00 0.00 0.00 78 1013.3
20260905040121 80 333 0.0 1.0 0.00 0.00 0.00 77 1013.3
20260905035616 79 322 0.0 0.0 0.00 0.00 0.00 77 1013.4
20260905035113 80 0 0.0 0.0 0.00 0.00 0.00 78 1013.3
20260905034609 80 25 0.0 0.0 0.00 0.00 0.00 79 1013.1
20260905034108 80 333 0.0 0.0 0.00 0.00 0.00 78 1013.3
20260905033608 80 290 0.0 1.0 0.00 0.00 0.00 76 1013.1
20260905033104 80 0 0.0 0.0 0.00 0.00 0.00 78 1013.0
20260905032603 80 338 0.0 0.0 0.00 0.00 0.00 79 1013.2
20260905032103 80 343 0.0 1.0 0.00 0.00 0.00 79 1013.1
20260905031559 80 343 0.0 1.0 0.00 0.00 0.00 78 1013.3
20260905031059 80 333 0.0 1.0 0.00 0.00 0.00 78 1013.3
20260905030554 80 348 0.0 0.0 0.00 0.00 0.00 78 1013.1
20260905030049 80 345 0.0 1.0 0.00 0.00 0.00 79 1013.3
20260905025544 80 15 0.0 0.0 0.00 0.00 0.00 78 1013.1
20260905025040 80 326 0.0 1.0 0.00 0.00 0.00 81 1013.2
20260905024536 79 352 0.0 1.0 0.00 0.00 0.00 80 1013.3
20260905024031 79 0 0.0 0.0 0.00 0.00 0.00 82 1013.1
20260905023526 79 343 0.0 0.0 0.00 0.00 0.00 82 1013.1
20260905023021 79 336 0.0 0.0 0.00 0.00 0.00 81 1013.2
20260905022520 79 345 0.0 1.0 0.00 0.00 0.00 81 1013.0
20260905022016 79 336 0.0 0.0 0.00 0.00 0.00 81 1013.1
20260905021515 79 350 0.0 1.0 0.00 0.00 0.00 81 1013.2
20260905021011 80 348 1.0 1.0 0.00 0.00 0.00 80 1013.2
20260905020505 80 15 0.0 1.0 0.00 0.00 0.00 80 1013.1
20260905020006 80 0 0.0 1.0 0.00 0.00 0.00 79 1013.0
20260905015503 80 29 0.0 0.0 0.00 0.00 0.00 79 1013.0
20260905015003 80 333 0.0 0.0 0.00 0.00 0.00 78 1013.0
20260905014458 80 37 0.0 1.0 0.00 0.00 0.00 78 1012.9
20260905013953 81 25 0.0 0.0 0.00 0.00 0.00 78 1012.7
20260905013450 81 6 0.0 1.0 0.00 0.00 0.00 77 1012.6
20260905012944 81 341 0.0 1.0 0.00 0.00 0.00 75 1012.5
20260905012440 81 345 0.0 0.0 0.00 0.00 0.00 75 1012.6
20260905011936 82 349 0.0 0.0 0.00 0.00 0.00 75 1012.5
20260905011432 82 322 0.0 0.0 0.00 0.00 0.00 74 1012.5
20260905010927 82 343 0.0 0.0 0.00 0.00 0.00 74 1012.5
20260905010422 83 328 0.0 1.0 0.00 0.00 0.00 73 1012.5
20260905005918 83 334 0.0 1.0 0.00 0.00 0.00 72 1012.6
20260905005414 84 324 0.0 1.0 0.00 0.00 0.00 69 1012.4
20260905004909 84 341 0.0 1.0 0.00 0.00 0.00 69 1012.4
20260905004409 84 349 0.0 1.0 0.00 0.00 0.00 69 1012.4
20260905003904 85 326 1.0 1.0 0.00 0.00 0.00 69 1012.5
20260905003400 86 336 1.0 1.0 0.00 0.00 0.00 68 1012.3
20260905002856 86 343 0.0 1.0 0.00 0.00 0.00 67 1012.4
20260905002355 87 331 0.0 1.0 0.00 0.00 0.00 63 1012.3
20260905001850 87 323 0.0 1.0 0.00 0.00 0.00 63 1012.2
20260905001344 88 319 0.0 1.0 0.00 0.00 0.00 61 1012.3
20260905000840 89 328 0.0 1.0 0.00 0.00 0.00 60 1012.3
20260905000335 89 326 0.0 2.0 0.00 0.00 0.00 59 1012.3
20260904235831 90 352 0.0 1.0 0.00 0.00 0.00 58 1012.2
20260904235326 90 331 1.0 1.0 0.00 0.00 0.00 56 1012.1